Location: Unspecified
(42.9300°N, 71.1866°W)
Time: 15:08:25
(UTC-04:00)

GENESIS II - Visible Passes

Search period start: 28 August 2015 00:00
Search period end: 07 September 2015 00:00
Orbit: 494 x 554 km, 64.5° (Epoch: 28 August)

Date Brightness Start Highest point End Pass type
(mag) Time Alt. Az. Time Alt. Az. Time Alt. Az.
28 Aug 7.2 02:27:28 12° NNW 02:27:28 12° NNW 02:28:17 10° N visible
29 Aug 7.4 02:14:41 11° NNW 02:14:41 11° NNW 02:15:07 10° N visible
30 Aug 7.5 02:01:52 10° NNW 02:01:52 10° NNW 02:01:55 10° N visible
05 Sep 7.1 05:39:25 10° N 05:42:28 20° NE 05:45:35 10° E visible
06 Sep 7.0 05:26:18 10° N 05:29:28 21° NE 05:32:41 10° E visible
